Location: Lombard
(41.8800°N, 88.0080°W)
Time: 02:59:29
(UTC-05:00)

DX 1 - Pass Details

Date: 19 June 2023
Orbit: 614 x 623 km, 98.3° (Epoch: 29 September)

Event Time Altitude Azimuth Distance (km) Brightness Sun altitude
Rises 00:34:08 0° 358° (N) 2,910 ? -24.5°
Reaches altitude 10° 00:36:45 10° 343° (NNW) 1,997 ? -24.6°
Maximum altitude 00:39:58 21° 295° (WNW) 1,411 ? -24.6°
Enters shadow 00:41:29 17° 267° (W) 1,553 ? -24.6°
